Wind_Speed
52 50 49 48 42 42 38 39 46 47 49 44 41 44 45 48 49 47 58 51 54 52 49 45 39 40 41 40 40 39 40 41 40 34 33 34 34 30 30 31 31 31 31 29
47 45 41 38 43 41 39 40 43 44 43 41 41 41 43 40 41 41 41 50 42 44 44 42 38 39 41 41 38 36 40 39 32 34 34 33 30 31 30 29 27 31 29 27
31 28 34 37 31 30 32 34 36 35 35 32 36 36 39 39 37 36 41 27 30 39 38 35 40 38 38 36 33 34 34 33 34 33 31 29 30 28 27 28 29 28 27 26
32 30 37 26 27 30 30 31 32 31 30 33 37 44 34 30 32 36 37 41 41 41 32 31 30 31 31 32 29 30 32 34 33 28 28 29 29 29 29 28 27 27 27 27
35 35 35 27 29 24 31 31 26 28 38 36 39 38 30 30 35 29 26 34 25 21 20 22 24 20 26 25 23 25 26 27 27 27 29 29 30 27 31 26 26 27 25 24
26 32 34 27 27 26 28 21 27 33 37 37 37 33 24 24 14 9 10 14 15 15 22 15 15 17 19 19 19 21 24 26 28 30 31 31 32 27 33 27 27 25 23 22
33 34 29 29 28 24 26 29 33 36 38 38 35 34 28 23 18 8 11 10 12 14 18 18 18 16 17 18 20 24 26 30 31 30 29 25 28 31 29 28 27 24 23 20
33 36 24 26 27 27 32 33 34 38 41 41 33 31 29 28 23 21 17 17 16 16 15 12 14 14 16 18 20 22 23 22 21 23 21 27 30 27 30 27 26 25 25 23
28 33 31 30 20 21 30 37 34 30 32 29 29 27 28 26 25 24 20 22 17 17 16 18 18 20 20 22 21 22 22 24 24 21 23 25 27 27 27 28 25 25 26 26
28 29 28 31 30 31 33 32 32 30 31 25 23 22 22 21 17 21 19 20 19 20 18 19 21 21 22 22 22 22 21 22 17 19 21 22 24 26 28 27 25 26 27 27
26 24 29 24 26 28 27 25 27 24 26 25 18 16 14 19 22 20 21 21 22 21 21 23 25 26 25 26 24 22 21 21 21 19 21 23 23 25 25 25 26 27 27 28
28 27 28 30 30 26 27 32 29 26 24 26 20 19 21 19 25 24 25 21 22 21 23 24 25 26 24 22 23 24 23 21 20 26 27 27 26 26 25 27 27 27 28 29
29 26 21 23 25 28 28 30 27 27 27 25 25 21 29 26 22 23 25 26 24 26 27 28 26 25 22 25 27 27 28 27 24 23 24 25 29 32 28 28 29 29 29 31
27 23 23 24 25 27 28 31 30 29 26 27 25 25 22 23 24 26 26 27 27 27 28 30 30 29 29 29 30 31 30 30 28 26 25 26 28 26 27 27 29 31 31 32
29 28 26 24 26 27 30 30 29 28 27 24 24 25 26 29 29 30 31 32 32 33 31 33 32 31 31 31 33 33 30 27 28 28 27 28 28 29 28 30 32 34 35 35
29 29 28 29 30 29 30 30 29 27 27 21 24 28 26 29 30 32 33 33 33 33 35 33 34 33 33 33 31 24 24 23 24 27 28 28 27 27 28 31 33 34 35 36
25 29 31 30 31 32 31 30 27 26 26 27 27 24 27 29 29 30 30 31 31 32 32 32 32 33 33 27 22 25 25 26 27 31 29 30 31 33 36 35 36 34 36 39
26 31 31 32 33 34 33 28 25 25 26 26 26 25 26 28 28 26 27 28 30 30 30 28 26 24 26 28 31 26 27 30 31 31 33 36 35 38 43 39 36 35 38 39
30 33 35 37 33 30 27 25 27 27 27 27 26 24 24 23 26 26 27 27 26 25 24 23 25 27 29 30 25 28 30 30 32 33 35 38 42 44 43 34 35 38 40 43
27 27 23 20 16 14 15 19 21 21 20 18 16 21 24 24 23 22 21 21 21 20 20 21 23 25 28 29 31 33 34 37 37 37 40 42 39 35 35 36 39 40 41 42
20 20 18 18 16 17 16 14 15 16 15 21 23 21 21 20 19 19 19 19 19 19 19 19 20 21 23 27 29 31 33 35 36 37 37 37 39 39 39 40 42 41 41 42
18 15 15 15 16 17 19 19 17 17 19 19 21 21 19 18 18 17 17 17 16 17 17 18 19 20 20 22 24 26 28 30 31 33 34 35 36 37 38 39 40 40 40 41
17 17 18 17 17 18 20 18 18 19 19 19 21 21 18 17 17 17 17 17 18 18 20 21 22 24 25 26 27 29 31 33 34 35 36 37 38 40 41 42 43 44 44 44
21 19 19 19 18 18 19 19 19 18 19 20 21 22 22 21 18 17 17 18 20 23 24 26 28 30 31 32 33 34 35 37 38 39 40 41 42 43 44 44 45 46 47 48
24 23 22 22 21 20 20 21 21 21 21 22 21 20 18 17 17 18 20 22 25 27 30 32 33 36 37 38 38 39 39 40 40 41 42 43 44 46 47 49 50 51 51 52
23 24 24 22 20 22 22 22 22 22 22 21 20 18 17 18 20 23 25 28 30 33 35 37 39 40 41 41 41 41 42 43 45 48 50 51 53 54 54 53 53 52 53 53
25 24 25 25 22 21 22 22 22 22 21 20 19 20 23 25 28 30 32 35 36 38 39 40 40 41 42 42 43 46 49 51 54 55 54 54 53 51 51 51 51 52 51 51
Wind_Direction
278 277 272 270 270 267 263 267 272 274 274 283 282 281 281 280 280 281 266 267 271 269 268 265 261 272 274 276 273 265 265 269 274 272 268 272 276 271 273 275 277 279 282 276
276 275 274 272 272 272 267 263 265 269 274 279 284 284 281 274 273 281 273 264 262 270 265 259 269 272 273 272 271 266 263 270 272 273 271 271 267 268 272 276 279 283 279 277
269 272 272 269 297 279 272 271 277 275 280 284 288 290 285 276 275 274 268 277 278 280 281 275 268 268 268 271 270 267 264 265 264 268 266 262 264 269 276 281 281 279 279 274
272 266 266 285 275 276 280 280 282 277 285 286 296 301 297 284 275 271 269 268 273 276 266 268 265 265 266 267 266 264 260 261 266 262 259 263 267 276 281 281 279 279 275 273
266 266 273 275 276 266 270 280 278 278 285 292 297 292 282 284 279 273 260 253 268 268 274 270 262 263 260 262 264 263 262 259 258 259 262 266 271 278 280 276 279 277 278 274
267 275 269 275 283 276 272 273 268 280 284 289 296 280 282 279 289 309 278 279 283 268 256 259 263 252 258 261 263 265 265 265 265 266 267 269 271 256 273 271 275 276 274 267
257 267 271 271 285 274 260 275 285 286 286 288 291 276 277 284 275 349 275 275 294 281 275 267 264 263 266 280 279 280 277 270 266 262 261 255 260 264 264 269 273 271 264 255
250 264 259 277 283 276 275 282 285 286 285 286 285 272 276 267 270 285 281 262 270 284 280 270 276 283 285 290 292 290 282 273 258 254 246 254 260 255 259 265 269 264 258 249
261 269 269 273 271 280 276 284 284 289 290 285 284 277 270 268 268 273 281 282 274 283 279 277 277 280 286 289 299 299 285 257 245 241 245 243 248 258 263 266 262 258 258 253
251 262 270 265 273 278 279 280 285 291 292 278 293 279 254 256 266 267 267 277 276 277 279 276 277 281 283 291 297 306 300 283 255 246 251 253 260 267 266 260 255 255 259 259
271 250 260 266 270 271 275 282 286 290 288 276 294 260 269 267 263 260 271 272 275 279 281 281 281 284 291 290 292 297 302 293 262 259 264 263 270 275 266 257 255 257 258 259
261 274 273 262 268 279 279 292 295 286 290 275 283 261 249 237 259 258 271 275 269 272 282 285 285 287 292 294 290 291 293 296 284 265 261 264 270 273 269 261 259 260 261 261
263 276 264 269 267 264 275 281 292 291 284 280 273 278 249 245 251 257 267 274 275 276 278 280 284 286 283 283 290 291 291 292 291 282 276 274 270 263 261 261 263 265 265 265
269 271 271 278 269 273 279 285 289 289 288 279 276 270 270 250 254 262 268 272 275 276 277 277 278 280 281 281 284 288 287 285 287 285 284 283 280 277 269 270 268 267 266 267
266 266 272 273 277 282 285 288 290 288 282 278 273 268 264 263 262 265 267 271 276 277 277 277 276 275 276 280 283 285 285 282 282 285 288 287 285 280 270 269 270 267 266 268
257 259 268 277 283 287 285 286 290 282 277 262 264 262 267 269 269 269 272 276 277 277 279 278 275 273 276 280 279 275 281 280 285 285 288 287 284 284 290 280 268 270 270 269
259 263 270 278 284 284 285 285 278 269 269 265 267 272 270 271 274 275 277 281 282 281 280 279 276 274 274 267 265 258 271 266 276 276 286 287 285 288 289 292 280 272 268 273
270 271 278 284 285 284 281 270 266 266 266 262 264 269 272 272 274 278 280 280 282 283 282 279 275 266 255 265 260 264 270 276 277 273 275 281 283 285 285 284 283 274 270 275
279 282 283 282 280 276 272 270 270 267 264 264 265 269 270 271 275 277 280 282 282 281 279 276 268 261 262 267 263 272 275 275 277 279 276 275 278 278 281 280 278 277 275 276
276 277 273 273 272 278 280 280 283 270 258 257 258 265 266 269 275 278 282 284 286 287 285 281 277 274 272 272 270 273 270 274 276 275 274 277 279 280 280 278 280 281 280 279
280 285 283 273 269 261 266 283 283 277 270 277 265 261 269 271 276 279 280 283 285 288 290 290 288 285 282 277 274 273 273 274 274 276 278 279 280 281 281 280 282 283 281 282
278 255 262 265 270 268 269 271 274 278 267 264 269 267 267 272 275 279 283 286 289 292 294 294 293 293 292 290 289 288 287 286 285 285 284 284 284 284 283 283 284 284 284 283
282 277 265 263 265 271 266 269 271 274 276 276 274 269 267 271 275 280 284 289 294 296 297 298 297 296 296 295 294 293 292 291 289 287 286 285 285 284 283 283 282 282 281 281
281 277 278 278 272 269 269 269 268 272 275 277 277 274 268 263 269 280 289 295 300 301 300 299 298 297 296 295 294 293 292 291 289 288 287 286 286 285 285 285 284 284 284 283
274 271 269 272 273 271 270 273 273 273 275 278 279 276 273 276 283 288 291 295 298 299 299 298 298 297 296 294 293 292 291 291 290 289 288 288 287 287 287 287 286 286 285 285
269 266 262 264 271 271 270 272 275 276 277 273 271 273 280 289 292 295 297 297 298 298 298 297 296 295 295 294 294 293 293 293 292 292 291 290 290 289 288 288 287 286 285 284
264 267 265 260 265 266 267 269 271 272 268 268 276 285 290 293 296 297 298 298 299 299 299 297 296 295 295 294 294 295 295 295 294 293 292 291 290 289 288 288 288 287 285 283
Height
5606 5609 5610 5606 5606 5607 5606 5605 5601 5599 5597 5596 5594 5590 5587 5584 5580 5578 5576 5576 5573 5578 5578 5578 5578 5576 5576 5575 5576 5577 5576 5577 5577 5576 5576 5577 5578 5578 5578 5577 5576 5575 5575 5574
5592 5595 5594 5592 5596 5595 5593 5593 5590 5587 5585 5585 5581 5579 5575 5572 5568 5566 5563 5560 5563 5562 5565 5566 5566 5565 5563 5564 5564 5565 5566 5567 5567 5567 5568 5569 5569 5569 5570 5569 5568 5567 5567 5566
5581 5585 5580 5580 5588 5583 5581 5580 5579 5576 5575 5573 5571 5567 5562 5557 5556 5555 5551 5549 5553 5552 5552 5554 5554 5552 5552 5552 5553 5555 5555 5557 5558 5559 5559 5560 5561 5562 5561 5560 5560 5559 5558 5558
5572 5574 5569 5576 5574 5572 5571 5571 5570 5567 5565 5563 5561 5556 5551 5549 5546 5545 5546 5544 5544 5545 5542 5542 5542 5543 5543 5543 5544 5546 5547 5548 5549 5551 5551 5553 5553 5553 5553 5552 5552 5551 5551 5550
5563 5564 5563 5567 5565 5564 5560 5561 5560 5555 5557 5556 5552 5547 5544 5540 5538 5537 5536 5537 5537 5536 5535 5534 5534 5535 5536 5536 5537 5538 5539 5540 5541 5543 5544 5545 5545 5545 5545 5545 5544 5544 5542 5542
5555 5554 5553 5558 5557 5556 5554 5550 5549 5551 5549 5546 5543 5539 5538 5535 5531 5530 5530 5530 5530 5530 5530 5529 5529 5530 5530 5531 5532 5532 5532 5533 5534 5535 5535 5536 5536 5537 5538 5537 5537 5537 5536 5536
5549 5546 5546 5546 5549 5547 5543 5546 5543 5541 5538 5536 5535 5531 5531 5531 5529 5523 5525 5527 5526 5526 5525 5524 5524 5525 5525 5526 5525 5525 5524 5524 5524 5524 5524 5526 5528 5529 5530 5530 5530 5530 5530 5530
5540 5535 5541 5540 5541 5540 5537 5537 5534 5531 5529 5526 5525 5524 5523 5524 5525 5524 5523 5523 5523 5522 5521 5521 5520 5520 5520 5520 5519 5518 5516 5515 5515 5516 5517 5519 5520 5521 5522 5522 5523 5523 5524 5524
5535 5533 5534 5533 5528 5530 5529 5528 5526 5524 5521 5519 5518 5516 5516 5517 5518 5518 5519 5518 5517 5517 5517 5517 5517 5516 5515 5514 5513 5511 5509 5508 5508 5509 5510 5512 5513 5514 5513 5514 5514 5516 5516 5517
5525 5528 5527 5525 5524 5524 5522 5520 5519 5518 5514 5513 5511 5509 5510 5512 5512 5513 5514 5513 5512 5512 5512 5512 5511 5510 5509 5507 5506 5504 5503 5501 5501 5503 5504 5505 5506 5505 5505 5505 5506 5507 5508 5509
5516 5517 5517 5518 5518 5517 5515 5514 5512 5512 5508 5507 5505 5505 5506 5507 5506 5507 5507 5508 5507 5506 5506 5506 5505 5504 5502 5501 5500 5500 5498 5497 5496 5497 5497 5498 5498 5497 5497 5498 5499 5499 5500 5501
5511 5510 5509 5511 5511 5511 5508 5506 5506 5504 5503 5500 5499 5499 5500 5500 5499 5501 5501 5501 5501 5501 5500 5499 5498 5498 5496 5495 5494 5493 5493 5492 5491 5490 5490 5491 5491 5490 5490 5490 5490 5491 5491 5492
5502 5502 5503 5502 5502 5501 5501 5500 5498 5497 5496 5494 5493 5492 5492 5493 5493 5494 5494 5494 5494 5494 5493 5492 5491 5491 5490 5489 5488 5487 5486 5485 5484 5484 5483 5482 5482 5482 5482 5482 5482 5483 5483 5483
5496 5495 5496 5495 5494 5494 5493 5492 5490 5489 5488 5486 5486 5486 5486 5486 5486 5487 5487 5487 5486 5486 5486 5484 5484 5483 5482 5482 5481 5480 5479 5478 5477 5476 5476 5475 5474 5474 5473 5473 5474 5474 5474 5474
5488 5488 5488 5487 5486 5486 5485 5483 5482 5480 5479 5478 5478 5478 5479 5479 5479 5479 5479 5479 5478 5477 5478 5475 5475 5474 5473 5473 5472 5471 5470 5470 5469 5468 5468 5467 5466 5465 5465 5465 5464 5464 5464 5464
5479 5480 5480 5479 5478 5477 5476 5474 5472 5471 5470 5470 5470 5470 5471 5470 5470 5470 5471 5470 5469 5468 5466 5466 5464 5464 5463 5463 5463 5462 5462 5462 5461 5461 5460 5459 5458 5457 5456 5455 5455 5454 5454 5454
5470 5470 5470 5471 5469 5467 5465 5463 5463 5462 5461 5461 5461 5462 5462 5462 5462 5462 5461 5461 5459 5458 5456 5456 5455 5454 5453 5453 5453 5453 5453 5453 5453 5453 5452 5451 5450 5449 5447 5445 5444 5443 5443 5442
5460 5460 5460 5459 5457 5456 5455 5455 5454 5453 5453 5453 5453 5454 5454 5454 5454 5453 5453 5452 5450 5448 5447 5445 5444 5444 5444 5445 5445 5445 5445 5445 5444 5442 5442 5442 5440 5438 5436 5434 5433 5431 5431 5430
5450 5449 5448 5447 5447 5446 5445 5445 5445 5445 5444 5445 5445 5446 5447 5446 5446 5446 5445 5443 5441 5440 5438 5437 5436 5436 5436 5437 5437 5437 5436 5435 5434 5433 5432 5431 5430 5428 5425 5423 5422 5420 5419 5417
5441 5440 5439 5439 5439 5438 5438 5438 5437 5436 5437 5438 5439 5440 5440 5439 5439 5438 5437 5435 5434 5432 5431 5430 5429 5428 5428 5428 5428 5427 5426 5425 5424 5423 5422 5419 5418 5416 5414 5412 5410 5408 5406 5404
5435 5434 5434 5433 5433 5433 5433 5433 5433 5433 5432 5433 5433 5433 5433 5432 5432 5431 5430 5429 5427 5426 5424 5423 5422 5421 5420 5419 5418 5417 5416 5415 5413 5411 5410 5408 5405 5403 5401 5399 5397 5395 5392 5390
5431 5430 5429 5429 5429 5428 5428 5428 5428 5427 5427 5427 5427 5426 5426 5426 5426 5425 5424 5423 5421 5420 5418 5417 5416 5414 5413 5411 5410 5409 5407 5405 5403 5400 5398 5396 5393 5391 5389 5386 5384 5381 5379 5376
5426 5425 5424 5424 5423 5423 5423 5423 5422 5422 5422 5421 5421 5420 5420 5420 5419 5418 5418 5416 5415 5414 5412 5411 5409 5407 5405 5403 5401 5399 5397 5394 5392 5389 5387 5384 5381 5379 5376 5374 5371 5368 5365 5363
5420 5419 5419 5418 5417 5417 5417 5417 5416 5416 5415 5415 5415 5414 5413 5413 5412 5411 5411 5409 5408 5407 5406 5403 5401 5399 5396 5394 5391 5388 5385 5382 5380 5377 5374 5371 5368 5365 5362 5359 5356 5353 5350 5347
5413 5412 5412 5412 5411 5411 5411 5410 5410 5410 5409 5408 5408 5407 5407 5406 5405 5404 5403 5402 5401 5399 5397 5394 5391 5389 5386 5382 5379 5376 5373 5370 5366 5363 5360 5357 5354 5350 5347 5343 5340 5336 5333 5330
5405 5405 5404 5404 5404 5403 5403 5403 5403 5403 5402 5401 5401 5400 5400 5399 5398 5397 5395 5393 5391 5389 5386 5383 5380 5377 5373 5369 5366 5363 5359 5356 5352 5348 5344 5340 5337 5333 5329 5325 5321 5318 5314 5311
5397 5396 5396 5396 5396 5395 5395 5395 5395 5395 5395 5394 5393 5393 5392 5390 5389 5387 5384 5382 5379 5377 5374 5370 5366 5363 5360 5356 5352 5348 5344 5340 5335 5330 5326 5321 5317 5314 5310 5307 5303 5300 5296 5293